sat.trackr.live / text

‹ back to catalog

STARLINK-33748

NORAD 63383 · 2025-063W

PAYLOAD ACTIVE UNKNOWN

§ Identity

Operator
Country
US
Launch date
2025-03-26
Launch site
AFWTR
Launch vehicle
Mass (kg)
RCS (m²)

Purposes: comms

External: N2YO · Heavens-Above · Gunter

§ Orbital elements

Epoch: 2026-09-20T15:12:51.380064Z

Period
93.85 min
Inclination
53.1529°
Eccentricity
0.0001260
Mean motion
15.34385236 rev/d
Perigee alt
461.9 km
Apogee alt
463.6 km
Semi-major
6,840.9 km
B*
8.6741e-4
RAAN
234.9649°
Arg perigee
89.0680°
Mean anomaly
271.0467°
Rev number
8,449

§ Raw data

STARLINK-337481 63383U 25063W   26263.63392801  .00029030  00000+0  86741-3 0  99922 63383  53.1529 234.9649 0001260  89.0680 271.0467 15.34385236 84499

JSON: /api/v1/satellites/63383 · /tle

For live sub-satellite position, see the globe view (requires WebGL).

§ Visibility from observer

Set your observer location to see the next 7 days of passes ≥ 10°. The values pass through the URL so the page stays shareable.

No JS? Fill the form by hand. The geolocation button needs JavaScript.